Wind_Speed
5 4 10 2 4 4 3 4 9 10 4 1 28 8 9 5 4 5 28 24 24 26 22 23 22 22 21 21 21 21 20 20 21 20 20 20 19 17 16 16 15 17 14 12 10 10 11 10 8
2 2 3 1 5 5 2 7 13 11 17 31 21 13 12 4 16 31 32 27 25 26 23 24 23 22 21 20 20 18 17 16 17 17 18 18 17 15 14 14 14 13 12 10 9 9 9 9 8
7 8 3 3 2 5 5 11 14 16 13 13 10 15 7 11 24 34 32 29 27 26 23 23 21 18 17 16 17 16 16 17 16 15 15 16 16 13 12 12 12 11 10 9 8 8 8 8 7
5 5 2 3 3 1 9 12 23 20 22 19 20 11 13 10 26 31 31 30 28 25 21 20 18 16 15 14 13 14 14 15 15 14 14 14 14 12 12 11 10 10 9 7 7 8 8 7 7
10 6 3 3 11 11 8 21 23 15 13 23 21 10 17 19 27 32 31 30 28 25 21 18 16 14 13 12 11 13 13 14 14 13 14 13 13 11 11 10 8 9 9 8 7 6 6 7 7
8 4 3 5 5 9 15 28 25 22 22 23 22 18 9 23 32 31 29 27 24 23 20 17 14 13 12 11 10 10 12 13 13 11 12 12 11 10 10 10 7 8 7 8 7 7 6 6 9
4 2 2 4 3 7 13 27 19 22 22 8 26 8 18 32 30 31 28 26 24 21 18 17 15 13 11 10 9 10 10 12 11 11 11 11 10 9 8 7 6 6 5 5 6 6 6 7 7
13 5 4 3 7 4 14 10 24 27 10 26 30 7 15 35 33 31 27 23 21 21 18 16 14 11 9 9 9 9 10 11 11 10 10 9 9 9 8 6 6 4 4 3 4 4 5 8 8
8 3 8 10 3 3 15 8 14 19 27 20 7 27 37 38 36 32 28 20 22 21 18 15 13 12 10 9 9 9 10 10 10 10 10 9 8 9 9 7 7 4 3 4 4 4 3 4 9
7 3 7 11 15 8 11 10 18 15 23 14 21 25 34 41 40 35 31 27 23 22 19 14 14 15 15 13 10 11 11 10 9 9 9 9 8 8 9 6 5 3 1 0 2 5 5 4 8
4 7 1 21 7 10 6 6 4 23 12 33 31 32 42 43 40 37 31 23 20 21 21 19 18 18 12 14 12 14 12 11 9 9 9 9 8 7 5 2 1 3 4 1 3 4 5 3 3
9 21 26 13 17 4 5 12 5 12 15 34 38 36 41 41 41 36 29 23 23 21 20 18 15 15 12 12 10 9 12 10 10 9 9 6 3 3 3 3 3 3 3 4 3 5 7 0 3
2 2 27 21 23 3 10 9 5 15 30 32 34 33 30 37 38 37 28 24 23 20 20 20 16 13 11 10 8 6 6 10 9 7 7 4 5 3 2 3 1 4 5 5 5 5 6 3 2
6 7 9 10 2 6 7 10 3 22 32 31 33 31 25 25 33 37 32 27 26 18 19 21 18 14 11 10 6 4 6 4 5 5 5 4 2 3 4 3 2 5 5 2 5 6 4 3 2
22 5 1 8 4 1 1 3 2 27 34 32 31 31 27 24 26 35 32 27 24 19 20 21 20 17 14 12 6 9 9 3 1 3 1 2 2 3 2 2 4 3 1 1 3 3 5 4 4
3 3 5 3 8 0 5 5 6 24 32 29 31 31 30 28 27 28 32 27 25 24 25 26 21 18 17 18 11 10 7 4 4 7 9 4 2 4 2 1 3 5 2 1 3 2 3 3 4
3 3 5 3 8 4 4 1 5 18 25 25 28 30 30 30 30 28 32 30 27 26 24 22 20 14 13 20 16 12 8 7 5 3 11 6 2 3 3 2 3 4 2 2 2 1 1 2 6
6 3 6 3 6 11 5 11 4 10 25 26 30 31 31 32 32 30 31 31 27 26 25 23 19 13 9 19 23 16 10 6 5 5 6 3 4 2 0 2 2 6 1 1 4 6 2 2 4
9 3 4 6 9 7 13 17 12 17 17 21 25 33 33 32 28 31 29 31 28 29 28 26 23 18 14 15 23 20 12 10 10 8 4 4 6 4 3 4 4 2 3 2 5 9 7 6 6
7 3 3 4 7 7 6 9 7 7 17 21 27 32 36 33 29 33 31 32 30 28 28 27 24 21 18 14 13 18 11 13 12 9 6 4 1 3 6 4 6 5 2 3 3 12 9 7 9
6 9 7 4 4 1 2 6 5 3 4 16 18 36 36 36 32 37 34 33 32 30 28 28 25 23 19 16 13 16 18 11 11 12 10 6 2 5 5 5 7 4 4 2 1 9 8 8 8
8 13 17 8 4 4 8 4 6 6 8 8 15 32 36 39 36 39 36 36 35 33 29 27 26 25 22 19 16 21 20 15 11 9 10 9 7 4 5 3 5 5 4 2 0 5 9 7 8
19 18 19 8 6 5 4 4 5 9 7 16 21 26 37 44 43 43 41 39 36 35 33 28 25 26 23 23 20 21 20 18 15 13 15 14 12 8 6 5 4 4 6 3 3 3 4 8 9
4 5 5 6 4 2 7 5 4 10 18 15 25 30 38 42 43 43 42 40 38 38 36 31 28 25 24 22 22 22 20 20 20 18 15 16 14 8 9 8 6 4 7 4 5 3 4 7 10
6 6 2 1 1 6 5 2 7 18 13 16 25 32 24 37 40 44 46 44 42 43 39 36 31 27 27 26 24 25 22 21 19 16 10 5 13 8 10 11 8 5 7 5 4 3 2 3 9
4 8 6 5 2 4 4 5 6 3 8 26 21 19 29 35 42 44 47 46 44 43 41 38 35 29 27 28 26 25 26 23 21 17 16 13 5 4 7 10 8 6 5 6 6 3 1 2 9
5 2 7 6 1 3 4 4 4 6 5 11 23 21 25 38 40 42 45 46 45 42 42 41 37 32 28 24 24 24 27 27 24 19 16 13 11 9 7 8 8 7 5 6 6 5 3 5 4
8 5 3 4 4 3 4 4 5 4 4 2 8 20 15 33 35 40 43 45 47 44 39 38 38 33 28 26 23 24 24 27 26 23 20 18 15 13 10 11 8 7 8 7 8 7 5 4 3
0 0 5 5 5 5 3 5 14 7 7 8 3 9 16 21 29 34 39 43 42 42 41 38 38 36 32 30 23 23 24 24 26 28 26 22 18 17 15 13 11 10 11 10 11 10 7 4 3
7 9 7 5 4 0 4 4 15 6 7 5 4 3 17 16 11 15 20 32 37 38 40 38 37 37 33 29 28 25 23 24 25 26 26 25 22 20 18 15 14 14 14 14 13 11 10 8 7
Wind_Direction
189 344 337 336 54 81 62 101 103 100 88 112 163 135 107 82 134 152 144 150 151 136 134 128 124 123 118 115 112 115 117 119 120 123 128 131 132 143 146 149 148 149 151 152 164 168 166 164 162
229 302 350 312 82 71 359 79 85 100 120 99 94 113 57 80 98 133 143 152 152 139 139 136 133 126 117 110 111 117 118 122 120 120 122 125 128 138 143 149 155 161 168 170 170 174 167 171 171
17 20 31 68 99 119 114 117 104 116 118 112 117 79 77 112 122 141 145 155 153 145 142 139 136 125 118 117 117 120 121 124 123 122 124 126 128 131 143 145 153 159 169 180 183 180 173 173 162
101 52 5 87 100 335 115 126 118 113 97 81 96 74 90 153 138 149 149 157 153 148 147 145 142 137 130 125 122 117 124 126 122 122 131 123 120 128 147 142 144 142 146 153 165 180 179 163 142
55 70 3 70 83 84 97 121 116 96 78 93 107 115 116 150 142 144 152 156 156 153 153 154 152 147 138 133 130 123 128 124 120 121 123 119 118 124 127 132 138 137 141 139 140 140 159 155 140
43 45 91 82 78 88 106 120 109 100 110 109 107 120 126 157 151 152 155 156 160 157 160 162 158 156 147 141 138 128 132 123 120 120 119 119 120 124 130 128 139 138 141 130 133 139 149 150 146
61 62 86 99 95 102 125 128 124 125 130 125 131 95 138 154 154 158 157 161 164 164 165 164 161 161 151 143 135 137 135 126 124 124 121 120 120 121 121 118 122 127 130 131 139 143 146 150 144
348 307 49 45 81 77 147 133 144 147 137 140 137 148 164 160 154 154 155 159 164 165 166 162 161 154 144 141 139 141 135 131 125 124 121 121 112 117 116 106 107 114 114 137 155 151 151 161 162
307 6 22 3 84 158 138 124 161 149 138 155 223 159 155 159 157 159 159 164 169 170 165 164 153 147 139 133 133 135 130 126 122 121 120 118 112 100 98 100 102 108 116 114 156 161 184 175 176
19 59 49 49 37 334 357 128 130 130 151 132 129 140 162 158 166 168 165 156 166 167 163 157 158 137 117 120 125 133 123 121 121 131 131 124 116 112 105 104 97 84 59 25 128 165 172 214 195
310 42 112 87 101 308 5 342 68 140 149 151 157 141 161 165 173 174 167 160 144 139 150 142 143 149 116 131 124 122 118 121 122 126 120 130 131 120 110 116 69 14 32 335 282 266 243 320 213
141 196 134 151 174 200 56 326 285 163 175 162 154 156 160 162 168 179 171 163 157 159 155 155 148 136 126 135 127 117 119 118 107 121 96 77 91 110 113 72 8 329 21 32 68 330 11 114 185
225 309 100 116 157 185 348 5 319 125 151 158 155 166 172 173 183 184 178 164 167 167 171 169 164 150 131 148 154 155 123 115 110 110 86 85 53 70 50 31 182 21 22 48 42 13 14 83 193
205 46 39 45 101 81 44 318 19 142 148 156 162 169 181 184 183 184 179 171 178 173 182 179 178 165 154 153 190 214 180 109 124 105 84 122 69 20 35 3 35 34 32 52 68 36 30 40 36
119 100 183 71 68 84 21 25 80 156 156 161 171 175 188 194 183 182 180 174 174 183 180 180 181 177 176 180 179 149 151 149 132 210 110 71 26 349 313 109 118 153 224 232 22 14 2 312 297
91 100 106 265 148 49 76 249 188 167 159 167 176 182 192 200 202 203 197 197 190 182 187 188 197 196 188 196 184 154 164 196 266 255 217 221 268 336 337 276 125 154 181 335 30 75 59 8 19
342 205 139 217 217 115 145 34 292 176 167 172 182 188 198 207 210 211 201 197 189 189 189 193 195 206 219 198 189 181 179 218 223 181 204 216 295 21 32 126 169 194 137 124 123 116 282 38 10
218 250 66 137 202 206 230 234 234 209 181 182 187 195 204 210 216 214 201 194 187 191 194 201 208 213 195 194 194 190 195 226 231 267 210 354 231 268 186 252 268 148 232 170 302 263 197 186 50
205 124 192 190 230 161 220 250 208 233 179 189 198 199 208 213 215 208 202 194 188 195 200 206 209 208 206 189 191 188 191 217 230 244 269 331 255 261 215 223 181 192 174 295 332 171 163 120 110
195 158 239 250 238 219 236 233 214 237 202 195 197 206 207 207 207 196 198 194 195 195 203 207 209 210 207 207 197 197 188 199 211 233 240 245 267 254 239 229 230 229 237 322 347 175 170 141 149
191 161 221 197 71 138 86 321 227 264 285 210 215 212 208 206 199 192 194 197 199 201 201 209 212 212 209 209 204 197 191 208 229 235 222 221 201 259 242 242 236 227 231 274 246 174 179 169 167
182 201 190 205 109 207 162 239 252 195 253 274 250 205 208 206 204 198 197 199 204 208 205 211 214 213 216 209 210 189 191 207 221 224 232 239 240 235 262 246 233 232 225 248 150 173 188 189 173
257 182 192 179 156 71 291 94 282 119 250 249 238 220 209 208 206 201 200 206 209 209 205 210 214 216 214 216 217 210 209 213 230 236 239 244 246 232 247 267 237 258 236 228 246 255 211 198 195
221 129 65 58 80 337 245 163 250 186 219 221 248 222 211 206 206 208 207 208 209 209 205 206 211 212 210 210 214 215 213 220 227 232 248 249 220 224 234 253 246 266 240 245 267 252 221 219 216
81 67 29 152 93 218 254 24 220 213 200 196 218 232 220 206 199 204 207 208 209 207 205 210 208 208 212 212 215 217 218 219 226 232 230 233 237 236 243 244 244 265 242 256 233 255 248 208 202
149 142 148 196 200 250 19 241 261 107 285 244 230 225 221 208 199 204 207 210 213 211 209 209 210 209 209 213 218 225 225 227 230 235 240 254 238 246 252 241 244 251 250 239 261 261 208 49 188
243 144 190 121 95 72 266 296 13 87 24 109 143 166 202 195 195 202 209 209 215 214 212 212 213 213 213 215 216 222 229 231 231 232 239 245 238 252 252 240 229 234 243 245 249 248 283 330 223
153 169 39 12 171 207 291 284 221 141 161 261 92 111 129 194 194 196 209 210 215 220 219 218 217 217 216 215 217 221 225 232 236 233 236 238 235 241 241 236 228 232 239 240 251 245 262 295 247
352 101 76 122 134 158 188 278 346 167 200 131 116 98 112 149 170 190 210 214 216 219 219 222 219 217 218 219 216 219 222 225 229 233 235 239 238 238 239 235 233 232 233 231 232 243 252 254 258
153 188 139 125 248 261 142 316 332 40 352 353 123 50 126 109 126 183 206 209 211 215 219 224 223 219 220 221 221 220 220 222 225 229 232 234 232 235 240 239 239 238 238 238 232 234 235 248 261
Height
1502 1503 1504 1504 1514 1511 1518 1516 1505 1508 1510 1510 1511 1515 1521 1520 1522 1540 1540 1545 1547 1548 1551 1553 1554 1555 1555 1554 1556 1558 1560 1561 1560 1561 1562 1563 1564 1566 1566 1567 1568 1569 1571 1572 1572 1574 1576 1577 1577
1505 1504 1505 1505 1526 1533 1525 1509 1510 1508 1509 1508 1514 1518 1520 1528 1525 1532 1538 1545 1549 1549 1553 1554 1556 1557 1557 1557 1558 1561 1561 1562 1562 1562 1563 1563 1564 1566 1568 1569 1571 1572 1572 1573 1573 1574 1576 1576 1577
1504 1503 1505 1507 1523 1530 1526 1512 1513 1514 1513 1510 1516 1520 1524 1530 1531 1534 1539 1544 1549 1551 1554 1556 1558 1559 1559 1560 1561 1561 1563 1563 1563 1564 1564 1563 1564 1566 1568 1569 1571 1573 1574 1573 1573 1574 1575 1576 1577
1502 1505 1507 1515 1517 1507 1509 1510 1510 1513 1515 1514 1515 1524 1531 1533 1532 1535 1541 1546 1549 1553 1555 1557 1559 1561 1561 1562 1563 1562 1564 1564 1565 1565 1566 1565 1565 1567 1568 1570 1572 1572 1573 1573 1574 1574 1574 1575 1577
1500 1505 1515 1514 1511 1504 1506 1512 1513 1516 1519 1518 1518 1529 1533 1538 1537 1539 1543 1547 1550 1553 1556 1559 1560 1561 1561 1563 1564 1563 1565 1565 1566 1568 1567 1567 1567 1568 1570 1571 1573 1573 1573 1574 1575 1576 1576 1576 1577
1506 1511 1520 1525 1514 1510 1510 1512 1513 1517 1522 1526 1524 1527 1535 1537 1538 1542 1545 1548 1552 1553 1556 1559 1560 1562 1562 1563 1565 1565 1566 1567 1567 1568 1569 1569 1569 1570 1571 1572 1573 1574 1575 1575 1575 1576 1576 1577 1579
1517 1517 1520 1518 1517 1516 1517 1515 1514 1519 1523 1527 1526 1530 1539 1539 1540 1542 1547 1550 1551 1554 1557 1559 1561 1563 1563 1564 1566 1567 1567 1567 1568 1569 1570 1570 1571 1571 1572 1572 1574 1575 1576 1576 1576 1576 1576 1577 1579
1523 1521 1518 1517 1522 1524 1515 1514 1515 1518 1523 1526 1526 1532 1539 1540 1542 1545 1549 1551 1553 1555 1557 1559 1561 1563 1564 1565 1566 1568 1568 1568 1569 1570 1570 1571 1572 1572 1573 1574 1575 1576 1577 1576 1576 1577 1577 1577 1578
1517 1527 1538 1528 1519 1518 1512 1514 1519 1519 1523 1527 1525 1525 1531 1538 1544 1545 1549 1552 1554 1556 1558 1560 1561 1563 1564 1565 1566 1568 1569 1570 1570 1572 1572 1573 1573 1574 1573 1574 1575 1576 1577 1576 1577 1577 1577 1579 1579
1530 1543 1541 1535 1526 1523 1516 1512 1518 1522 1527 1529 1530 1532 1534 1539 1542 1544 1547 1549 1552 1554 1557 1560 1562 1564 1564 1565 1566 1568 1569 1571 1572 1572 1573 1574 1574 1575 1575 1576 1576 1577 1576 1577 1577 1577 1577 1578 1579
1535 1540 1541 1527 1528 1518 1520 1518 1516 1521 1527 1523 1527 1531 1534 1538 1541 1543 1546 1548 1549 1553 1556 1559 1562 1564 1565 1566 1567 1568 1569 1571 1573 1574 1575 1575 1575 1575 1577 1577 1577 1578 1577 1576 1577 1577 1577 1577 1578
1532 1522 1511 1527 1521 1515 1521 1521 1518 1519 1523 1525 1526 1531 1534 1538 1542 1543 1545 1548 1550 1554 1557 1559 1562 1564 1565 1566 1569 1570 1571 1573 1574 1575 1576 1576 1577 1578 1578 1578 1578 1578 1578 1577 1577 1577 1577 1576 1576
1518 1507 1515 1520 1519 1522 1522 1520 1520 1519 1524 1530 1531 1533 1537 1539 1541 1543 1544 1547 1550 1553 1556 1559 1561 1564 1566 1567 1570 1572 1573 1574 1575 1575 1576 1576 1577 1579 1578 1578 1578 1578 1577 1578 1578 1577 1576 1575 1576
1510 1517 1517 1523 1525 1523 1524 1523 1522 1526 1526 1532 1533 1535 1537 1538 1539 1544 1546 1547 1549 1553 1556 1558 1561 1564 1565 1567 1570 1571 1573 1574 1574 1575 1576 1577 1578 1578 1578 1577 1578 1578 1578 1579 1578 1577 1577 1576 1575
1513 1522 1520 1520 1522 1526 1525 1525 1524 1525 1526 1530 1534 1536 1538 1539 1542 1542 1545 1547 1548 1552 1555 1558 1561 1564 1566 1567 1570 1572 1573 1574 1575 1576 1578 1579 1580 1579 1578 1578 1577 1579 1579 1579 1578 1578 1577 1576 1575
1521 1523 1533 1518 1520 1524 1526 1537 1524 1526 1526 1530 1533 1535 1537 1539 1541 1542 1544 1547 1550 1552 1555 1559 1562 1564 1566 1569 1570 1572 1574 1575 1577 1578 1578 1577 1579 1580 1578 1579 1579 1578 1578 1578 1579 1578 1578 1576 1574
1525 1536 1528 1528 1518 1524 1527 1536 1527 1526 1528 1531 1534 1535 1537 1539 1540 1541 1543 1546 1549 1551 1554 1558 1561 1565 1566 1569 1570 1572 1574 1573 1574 1574 1576 1577 1578 1578 1579 1578 1578 1579 1579 1579 1579 1579 1579 1577 1575
1536 1530 1525 1526 1515 1521 1525 1524 1523 1527 1524 1525 1529 1533 1535 1537 1538 1540 1543 1546 1549 1551 1554 1557 1561 1564 1566 1568 1570 1572 1573 1572 1572 1572 1573 1575 1576 1577 1578 1578 1578 1578 1578 1579 1579 1578 1577 1578 1576
1515 1523 1522 1520 1506 1516 1518 1514 1515 1516 1521 1522 1526 1528 1531 1533 1536 1539 1542 1545 1549 1551 1553 1555 1559 1562 1565 1567 1569 1572 1572 1571 1571 1573 1573 1573 1574 1574 1575 1576 1576 1577 1577 1578 1576 1577 1577 1577 1577
1514 1522 1526 1511 1506 1520 1513 1511 1509 1511 1517 1516 1520 1523 1524 1527 1532 1536 1539 1543 1546 1549 1552 1554 1557 1560 1562 1566 1568 1570 1571 1570 1571 1572 1572 1573 1573 1573 1575 1575 1575 1575 1576 1576 1575 1575 1576 1577 1577
1513 1522 1522 1510 1504 1512 1516 1522 1513 1511 1514 1513 1513 1517 1521 1523 1526 1532 1534 1538 1543 1547 1550 1553 1555 1557 1560 1563 1566 1568 1569 1569 1569 1569 1570 1572 1573 1573 1573 1573 1573 1575 1575 1575 1574 1575 1576 1577 1577
1526 1502 1502 1506 1516 1536 1512 1549 1523 1516 1515 1509 1511 1513 1515 1519 1524 1530 1530 1534 1539 1543 1547 1550 1553 1555 1557 1561 1563 1564 1566 1567 1567 1568 1570 1572 1572 1572 1572 1572 1572 1573 1574 1574 1574 1574 1575 1576 1576
1493 1490 1496 1500 1516 1528 1524 1536 1525 1518 1520 1510 1503 1508 1507 1510 1517 1524 1526 1528 1534 1540 1543 1546 1550 1553 1554 1557 1560 1563 1564 1565 1566 1567 1567 1569 1569 1570 1571 1571 1572 1572 1573 1573 1573 1574 1574 1574 1575
1477 1491 1499 1510 1527 1549 1522 1525 1526 1514 1500 1499 1499 1503 1501 1506 1513 1518 1522 1527 1530 1535 1540 1544 1546 1548 1551 1554 1557 1558 1560 1562 1563 1565 1565 1567 1568 1569 1570 1571 1571 1571 1572 1572 1572 1573 1572 1573 1573
1481 1506 1544 1546 1553 1550 1513 1519 1509 1492 1484 1488 1493 1492 1496 1503 1509 1513 1518 1521 1525 1529 1536 1540 1542 1544 1547 1550 1553 1554 1556 1558 1562 1564 1565 1566 1567 1567 1568 1569 1570 1571 1571 1572 1572 1572 1572 1572 1571
1485 1501 1537 1548 1553 1536 1517 1525 1499 1482 1480 1481 1486 1490 1491 1499 1503 1507 1512 1517 1520 1524 1529 1535 1538 1541 1544 1546 1549 1550 1552 1555 1558 1561 1563 1565 1565 1566 1566 1567 1568 1569 1570 1570 1571 1572 1572 1572 1572
1485 1501 1494 1522 1526 1540 1526 1501 1485 1484 1483 1479 1481 1484 1484 1489 1498 1504 1509 1514 1517 1520 1524 1527 1533 1537 1541 1542 1545 1548 1549 1551 1554 1558 1561 1563 1564 1564 1564 1564 1566 1567 1568 1568 1569 1571 1571 1572 1572
1475 1476 1509 1526 1535 1538 1528 1513 1512 1495 1490 1486 1482 1485 1486 1487 1495 1502 1507 1510 1513 1515 1519 1524 1528 1532 1536 1540 1542 1545 1546 1549 1552 1556 1557 1558 1559 1560 1560 1562 1562 1564 1565 1566 1568 1569 1569 1570 1570
1483 1490 1496 1508 1524 1542 1544 1528 1507 1488 1487 1483 1482 1481 1485 1487 1492 1500 1505 1506 1509 1512 1517 1520 1525 1530 1534 1537 1539 1542 1544 1546 1548 1549 1550 1553 1555 1556 1558 1559 1560 1561 1561 1562 1563 1566 1568 1568 1568
1467 1479 1491 1522 1518 1522 1524 1535 1505 1496 1493 1488 1485 1490 1489 1491 1496 1500 1503 1507 1509 1511 1514 1517 1522 1527 1530 1533 1536 1538 1541 1543 1544 1545 1546 1549 1551 1553 1555 1556 1558 1559 1559 1560 1561 1562 1564 1565 1566